User: anonymous   Login
Location: Clinton NY
(43.0598°N, 75.3602°W)
Time: 06:51:46
(UTC-05:00)
Language:

Iridium 11 - Orbit

View from above orbital plane
View from above orbital plane
View from above satellite
View from above satellite

Ground track
Ground track

The orbit data is extracted from the following two-line orbital elements,

1 25578U 98074B   16345.54824606  .00000030  00000-0  35773-5 0  9992
2 25578  86.3940 334.4631 0002143  92.3304  28.4141 14.34215928950366
Epoch (UTC): 10 December 2016 13:09:28
Eccentricity: 0.0002143
inclination: 86.3940°
perigee height: 776 km
apogee height: 779 km
right ascension of ascending node: 334.4631°
argument of perigee: 92.3304°
revolutions per day: 14.34215928
mean anomaly at epoch: 28.4141°
orbit number at epoch: 95036

The dashed part of the orbit path shows where the satellite is in the earth's shadow,  

DLR